| time (UTC) | temp C | wind direction | speed KPH | gust KPH | rain 1hr cm | rain 24hr cm | rain mn cm | humidity % | barometer mb |
| 20260506141005 | 25 | 141 | 29.0 | 0.0 | 0.00 | 0.00 | 0.00 | 81 | 1009.3 |
| 20260506140505 | 25 | 110 | 14.5 | 0.0 | 0.00 | 0.00 | 0.00 | 81 | 1009.3 |
| 20260506140005 | 25 | 166 | 20.9 | 0.0 | 0.00 | 0.00 | 0.00 | 81 | 1009.6 |
| 20260506135713 | 25 | 34 | 6.4 | 0.0 | 0.00 | 0.00 | 0.00 | 81 | 1009.3 |
| 20260506135005 | 25 | 166 | 6.4 | 0.0 | 0.00 | 0.00 | 0.00 | 82 | 1009.6 |
| 20260506134505 | 25 | 118 | 0.0 | 0.0 | 0.00 | 0.00 | 0.00 | 82 | 1009.3 |
| 20260506134004 | 25 | 129 | 0.0 | 0.0 | 0.00 | 0.00 | 0.00 | 83 | 1009.3 |
| 20260506133505 | 25 | 92 | 6.4 | 0.0 | 0.00 | 0.00 | 0.00 | 83 | 1009.6 |
| 20260506133005 | 25 | 114 | 0.0 | 0.0 | 0.00 | 0.00 | 0.00 | 84 | 1009.3 |
| 20260506132505 | 25 | 147 | 6.4 | 0.0 | 0.00 | 0.00 | 0.00 | 84 | 1009.3 |
| 20260506132005 | 25 | 140 | 14.5 | 0.0 | 0.00 | 0.00 | 0.00 | 84 | 1009.3 |
| 20260506131505 | 25 | 124 | 0.0 | 0.0 | 0.00 | 0.00 | 0.00 | 84 | 1008.9 |
| 20260506131005 | 25 | 162 | 6.4 | 0.0 | 0.00 | 0.00 | 0.00 | 85 | 1008.9 |
| 20260506130505 | 25 | 21 | 20.9 | 0.0 | 0.00 | 0.00 | 0.00 | 85 | 1008.9 |
| 20260506130005 | 24 | 120 | 6.4 | 0.0 | 0.00 | 0.00 | 0.00 | 86 | 1008.9 |
| 20260506125505 | 24 | 85 | 0.0 | 0.0 | 0.00 | 0.00 | 0.00 | 87 | 1008.9 |
| 20260506125005 | 24 | 141 | 0.0 | 0.0 | 0.00 | 0.00 | 0.00 | 87 | 1008.9 |
| 20260506124713 | 24 | 123 | 0.0 | 0.0 | 0.00 | 0.00 | 0.00 | 87 | 1008.9 |
| 20260506124005 | 24 | 121 | 0.0 | 0.0 | 0.00 | 0.00 | 0.00 | 87 | 1008.9 |
| 20260506123505 | 25 | 88 | 0.0 | 0.0 | 0.00 | 0.00 | 0.00 | 87 | 1008.6 |
| 20260506123212 | 25 | 86 | 6.4 | 0.0 | 0.00 | 0.00 | 0.00 | 86 | 1008.6 |
| 20260506122505 | 25 | 124 | 6.4 | 0.0 | 0.00 | 0.00 | 0.00 | 86 | 1008.2 |
| 20260506122005 | 25 | 87 | 0.0 | 0.0 | 0.00 | 0.00 | 0.00 | 86 | 1008.2 |
| 20260506121505 | 25 | 90 | 0.0 | 0.0 | 0.00 | 0.00 | 0.00 | 86 | 1007.9 |
| 20260506121213 | 25 | 87 | 0.0 | 0.0 | 0.00 | 0.00 | 0.00 | 86 | 1007.9 |
| 20260506120504 | 25 | 85 | 6.4 | 0.0 | 0.00 | 0.00 | 0.00 | 86 | 1007.9 |
| 20260506120005 | 25 | 109 | 0.0 | 0.0 | 0.00 | 0.00 | 0.00 | 85 | 1007.9 |
| 20260506115505 | 25 | 106 | 0.0 | 0.0 | 0.00 | 0.00 | 0.00 | 85 | 1007.9 |
| 20260506115005 | 25 | 96 | 0.0 | 0.0 | 0.00 | 0.00 | 0.00 | 85 | 1007.9 |
| 20260506114505 | 25 | 147 | 6.4 | 0.0 | 0.00 | 0.00 | 0.00 | 85 | 1007.2 |
| 20260506114005 | 25 | 95 | 0.0 | 0.0 | 0.00 | 0.00 | 0.00 | 85 | 1007.6 |
| 20260506113712 | 25 | 128 | 0.0 | 0.0 | 0.00 | 0.00 | 0.00 | 85 | 1007.2 |
| 20260506113213 | 25 | 65 | 6.4 | 0.0 | 0.00 | 0.00 | 0.00 | 85 | 1007.2 |
| 20260506112505 | 25 | 119 | 0.0 | 0.0 | 0.00 | 0.00 | 0.00 | 85 | 1007.2 |
| 20260506112005 | 25 | 146 | 6.4 | 0.0 | 0.00 | 0.00 | 0.00 | 85 | 1007.2 |
| 20260506111504 | 25 | 52 | 6.4 | 0.0 | 0.00 | 0.00 | 0.00 | 85 | 1007.2 |
| 20260506111004 | 25 | 125 | 0.0 | 0.0 | 0.00 | 0.00 | 0.00 | 85 | 1007.2 |
| 20260506110505 | 25 | 54 | 0.0 | 0.0 | 0.00 | 0.00 | 0.00 | 85 | 1007.2 |
| 20260506110005 | 25 | 76 | 6.4 | 0.0 | 0.00 | 0.00 | 0.00 | 85 | 1006.9 |
| 20260506105505 | 25 | 149 | 0.0 | 0.0 | 0.00 | 0.00 | 0.00 | 85 | 1006.9 |
| 20260506105213 | 25 | 77 | 0.0 | 0.0 | 0.00 | 0.00 | 0.00 | 85 | 1006.9 |
| 20260506104504 | 25 | 101 | 0.0 | 0.0 | 0.00 | 0.00 | 0.00 | 84 | 1006.9 |
| 20260506104005 | 25 | 162 | 6.4 | 0.0 | 0.00 | 0.00 | 0.00 | 84 | 1006.5 |
| 20260506103505 | 25 | 157 | 6.4 | 0.0 | 0.00 | 0.00 | 0.00 | 84 | 1006.5 |
| 20260506103211 | 25 | 86 | 14.5 | 0.0 | 0.00 | 0.00 | 0.00 | 84 | 1006.5 |
| 20260506102505 | 25 | 126 | 6.4 | 0.0 | 0.00 | 0.00 | 0.00 | 84 | 1006.5 |
| 20260506102005 | 25 | 91 | 6.4 | 0.0 | 0.00 | 0.00 | 0.00 | 84 | 1006.2 |
| 20260506101712 | 25 | 119 | 6.4 | 0.0 | 0.00 | 0.00 | 0.00 | 84 | 1006.2 |
| 20260506101005 | 25 | 64 | 6.4 | 0.0 | 0.00 | 0.00 | 0.00 | 84 | 1006.2 |
| 20260506100505 | 25 | 134 | 6.4 | 0.0 | 0.00 | 0.00 | 0.00 | 84 | 1006.2 |
| 20260506100005 | 25 | 120 | 0.0 | 0.0 | 0.00 | 0.00 | 0.00 | 84 | 1006.2 |
| 20260506095505 | 25 | 64 | 6.4 | 0.0 | 0.00 | 0.00 | 0.00 | 84 | 1006.2 |
| 20260506095005 | 25 | 28 | 6.4 | 0.0 | 0.00 | 0.00 | 0.00 | 84 | 1006.2 |
| 20260506094505 | 25 | 162 | 14.5 | 0.0 | 0.00 | 0.00 | 0.00 | 84 | 1006.2 |
| 20260506094005 | 25 | 53 | 6.4 | 0.0 | 0.00 | 0.00 | 0.00 | 84 | 1006.2 |
| 20260506093505 | 25 | 152 | 20.9 | 0.0 | 0.00 | 0.00 | 0.00 | 84 | 1006.2 |
| 20260506093005 | 25 | 52 | 14.5 | 0.0 | 0.00 | 0.00 | 0.00 | 84 | 1006.2 |
| 20260506092505 | 25 | 128 | 14.5 | 0.0 | 0.00 | 0.00 | 0.00 | 84 | 1006.2 |
| 20260506092004 | 25 | 89 | 20.9 | 0.0 | 0.00 | 0.00 | 0.00 | 84 | 1006.2 |
| 20260506091505 | 25 | 90 | 20.9 | 0.0 | 0.00 | 0.00 | 0.00 | 84 | 1006.2 |
| 20260506091005 | 25 | 25 | 6.4 | 0.0 | 0.00 | 0.00 | 0.00 | 84 | 1006.2 |
| 20260506090505 | 25 | 115 | 29.0 | 0.0 | 0.00 | 0.00 | 0.00 | 84 | 1006.2 |
| 20260506090005 | 25 | 165 | 14.5 | 0.0 | 0.00 | 0.00 | 0.00 | 84 | 1006.2 |
| 20260506085505 | 25 | 178 | 0.0 | 0.0 | 0.00 | 0.00 | 0.00 | 84 | 1006.2 |
| 20260506085212 | 25 | 154 | 6.4 | 0.0 | 0.00 | 0.00 | 0.00 | 84 | 1006.5 |
| 20260506084713 | 25 | 75 | 14.5 | 0.0 | 0.00 | 0.00 | 0.00 | 84 | 1006.5 |
| 20260506084005 | 25 | 152 | 29.0 | 0.0 | 0.00 | 0.00 | 0.00 | 84 | 1006.5 |
| 20260506083713 | 25 | 135 | 20.9 | 0.0 | 0.00 | 0.00 | 0.00 | 84 | 1006.5 |
| 20260506083212 | 25 | 89 | 14.5 | 0.0 | 0.00 | 0.00 | 0.00 | 85 | 1006.5 |
| 20260506082711 | 25 | 98 | 6.4 | 0.0 | 0.00 | 0.00 | 0.00 | 85 | 1006.5 |
| 20260506082005 | 25 | 48 | 14.5 | 0.0 | 0.00 | 0.00 | 0.00 | 85 | 1006.5 |
| 20260506081505 | 25 | 47 | 14.5 | 0.0 | 0.00 | 0.00 | 0.00 | 85 | 1006.5 |
| 20260506081212 | 25 | 108 | 14.5 | 0.0 | 0.00 | 0.00 | 0.00 | 85 | 1006.5 |
| 20260506080505 | 25 | 145 | 20.9 | 0.0 | 0.00 | 0.00 | 0.00 | 85 | 1006.9 |
| 20260506073505 | 25 | 44 | 14.5 | 0.0 | 0.00 | 0.00 | 0.00 | 85 | 1007.2 |
| 20260506073005 | 25 | 59 | 14.5 | 0.0 | 0.00 | 0.00 | 0.00 | 85 | 1006.9 |
| 20260506072505 | 25 | 77 | 14.5 | 0.0 | 0.00 | 0.00 | 0.00 | 85 | 1006.9 |
| 20260506072214 | 25 | 135 | 6.4 | 0.0 | 0.00 | 0.00 | 0.00 | 85 | 1006.9 |
| 20260506071505 | 25 | 122 | 14.5 | 0.0 | 0.00 | 0.00 | 0.00 | 85 | 1007.2 |
| 20260506071212 | 25 | 85 | 29.0 | 0.0 | 0.00 | 0.00 | 0.00 | 85 | 1006.9 |
| 20260506070505 | 25 | 105 | 20.9 | 0.0 | 0.00 | 0.00 | 0.00 | 85 | 1006.9 |
| 20260506062505 | 25 | 104 | 37.0 | 0.0 | 0.00 | 0.00 | 0.00 | 84 | 1007.6 |
| 20260506062213 | 25 | 98 | 20.9 | 0.0 | 0.00 | 0.00 | 0.00 | 83 | 1007.6 |
| 20260506061505 | 25 | 129 | 20.9 | 0.0 | 0.00 | 0.00 | 0.00 | 83 | 1007.6 |
| 20260506061213 | 25 | 79 | 14.5 | 0.0 | 0.00 | 0.00 | 0.00 | 83 | 1007.9 |
| 20260506060712 | 25 | 44 | 14.5 | 0.0 | 0.00 | 0.00 | 0.00 | 83 | 1007.6 |
| 20260506051006 | 25 | 319 | 14.5 | 0.0 | 0.00 | 0.00 | 0.00 | 81 | 1007.9 |
| 20260506050505 | 25 | 65 | 14.5 | 0.0 | 0.00 | 0.00 | 0.00 | 81 | 1008.2 |
| 20260506045004 | 25 | 49 | 29.0 | 0.0 | 0.00 | 0.00 | 0.00 | 80 | 1008.2 |
| 20260506044712 | 25 | 175 | 14.5 | 0.0 | 0.00 | 0.00 | 0.00 | 80 | 1007.9 |
| 20260506044005 | 25 | 149 | 14.5 | 0.0 | 0.00 | 0.00 | 0.00 | 80 | 1007.9 |
| 20260506043505 | 25 | 141 | 14.5 | 0.0 | 0.00 | 0.00 | 0.00 | 80 | 1008.2 |
| 20260506043005 | 25 | 44 | 29.0 | 0.0 | 0.00 | 0.00 | 0.00 | 80 | 1008.2 |
| 20260506042505 | 25 | 88 | 20.9 | 0.0 | 0.00 | 0.00 | 0.00 | 80 | 1008.2 |
| 20260506042213 | 25 | 95 | 14.5 | 0.0 | 0.00 | 0.00 | 0.00 | 80 | 1008.2 |
| 20260506041505 | 25 | 10 | 20.9 | 0.0 | 0.00 | 0.00 | 0.00 | 80 | 1008.2 |
| 20260506041005 | 25 | 82 | 6.4 | 0.0 | 0.00 | 0.00 | 0.00 | 80 | 1008.2 |
| 20260506040505 | 25 | 50 | 6.4 | 0.0 | 0.00 | 0.00 | 0.00 | 80 | 1008.2 |
| 20260506040005 | 25 | 50 | 6.4 | 0.0 | 0.00 | 0.00 | 0.00 | 80 | 1008.2 |
| 20260506035505 | 25 | 105 | 20.9 | 0.0 | 0.00 | 0.00 | 0.00 | 80 | 1008.2 |
| 20260506035005 | 25 | 116 | 14.5 | 0.0 | 0.00 | 0.00 | 0.00 | 79 | 1007.9 |
| 20260506034505 | 25 | 62 | 14.5 | 0.0 | 0.00 | 0.00 | 0.00 | 79 | 1007.9 |
| 20260506034005 | 25 | 116 | 6.4 | 0.0 | 0.00 | 0.00 | 0.00 | 79 | 1007.9 |
| 20260506033506 | 25 | 86 | 29.0 | 0.0 | 0.00 | 0.00 | 0.00 | 79 | 1007.9 |
| 20260506033212 | 25 | 51 | 14.5 | 0.0 | 0.00 | 0.00 | 0.00 | 79 | 1007.6 |
| 20260506032505 | 25 | 58 | 14.5 | 0.0 | 0.00 | 0.00 | 0.00 | 79 | 1007.9 |
| 20260506032005 | 25 | 75 | 43.5 | 0.0 | 0.00 | 0.00 | 0.00 | 79 | 1007.9 |
| 20260506031505 | 25 | 33 | 20.9 | 0.0 | 0.00 | 0.00 | 0.00 | 79 | 1007.9 |
| 20260506031005 | 25 | 172 | 14.5 | 0.0 | 0.00 | 0.00 | 0.00 | 79 | 1007.9 |
| 20260506030505 | 25 | 58 | 29.0 | 0.0 | 0.00 | 0.00 | 0.00 | 79 | 1007.6 |
| 20260506030212 | 25 | 84 | 6.4 | 0.0 | 0.00 | 0.00 | 0.00 | 78 | 1007.6 |
| 20260506025505 | 25 | 136 | 14.5 | 0.0 | 0.00 | 0.00 | 0.00 | 78 | 1007.6 |
| 20260506025005 | 25 | 72 | 6.4 | 0.0 | 0.00 | 0.00 | 0.00 | 78 | 1007.6 |
| 20260506024505 | 25 | 65 | 14.5 | 0.0 | 0.00 | 0.00 | 0.00 | 78 | 1007.2 |
| 20260506024212 | 25 | 90 | 14.5 | 0.0 | 0.00 | 0.00 | 0.00 | 78 | 1007.2 |
| 20260506023504 | 25 | 77 | 14.5 | 0.0 | 0.00 | 0.00 | 0.00 | 78 | 1007.2 |
| 20260506023005 | 25 | 147 | 14.5 | 0.0 | 0.00 | 0.00 | 0.00 | 77 | 1007.2 |
| 20260506022505 | 25 | 92 | 6.4 | 0.0 | 0.00 | 0.00 | 0.00 | 77 | 1007.2 |
| 20260506022005 | 25 | 37 | 20.9 | 0.0 | 0.00 | 0.00 | 0.00 | 77 | 1007.2 |
| 20260506021505 | 25 | 55 | 43.5 | 0.0 | 0.00 | 0.00 | 0.00 | 77 | 1007.2 |
| 20260506021007 | 25 | 170 | 6.4 | 0.0 | 0.00 | 0.00 | 0.00 | 77 | 1007.2 |